Content
SEND FEEDBACK

Daily
Averages
Monthly
Summary
United States of America

BELLEVILLE, MICHIGAN


Home > North America > United States > Michigan
Elevation: 780 feet     Latitude: 42 14N     Longitude: 083 32W

WEATHER
 
SELECT A DAY
Number of Records: 202,692;   Date Range: 1/1/95 - 8/12/14
 
SHARE

PRINT THIS DATA

[ ← Previous Day ]
WEATHER ALMANAC - OCTOBER 28, 2013
[ Next Day → ]
[ °C ]   °F
Weather ElementAverageHighLow
Temperature44.3 °F54 °F (1:53 pm)34 °F (5:53 am)
Dewpoint33.7 °F39.2 °F (11:17 am)28 °F (3:53 am)
Humidity66.9 %82 % (7:53 am)57 % (1:53 pm)
Barometer30.26 in30.40 in (10:53 pm)30.08 in (1:53 am)
Wind Speed7.7 mph12.7 mph (11:53 am)
Weather ElementAverage
Visibility10 mi
Wind DirectionENE (84 °)

Weather ElementTotal
Precipitation---
Heating Degree Days21 (Base 65)
Averaged from 25 records on October 28, 2013
WEATHER CONDITIONS BREAKOUT
WIND DIRECTION BREAKOUT
WEATHER BY HOUR - OCTOBER 28, 2013
[ °C ]   °F
Local TimeTemperatureDewpointHumidityBarometerVisibilityWind DirectionWind SpeedGust SpeedPrecipitationEventsConditions
1:53 AM37.9 °F28.9 °F70 %30.08 in10.0 miSSW (210°)4.6 mphClear
2:53 AM35.1 °F28.9 °F78 %30.09 in10.0 miSSW (210°)6.9 mphClear
3:53 AM36.0 °F28.0 °F73 %30.10 in10.0 miSW (220°)4.6 mphClear
4:53 AM36.0 °F28.0 °F73 %30.12 in10.0 miSW (220°)4.6 mphClear
5:53 AM34.0 °F28.0 °F79 %30.14 in10.0 miSSW (210°)6.9 mphClear
6:53 AM36.0 °F28.9 °F76 %30.16 in10.0 miCalmClear
7:53 AM34.0 °F28.9 °F82 %30.20 in10.0 miWNW (300°)3.5 mphOvercast
8:53 AM36.0 °F30.0 °F79 %30.23 in10.0 miCalmOvercast
9:53 AM44.1 °F35.1 °F71 %30.25 in10.0 miNE (40°)3.5 mphOvercast
11:17 AM50.0 °F39.2 °F66 %30.27 in10.0 miNE (50°)10.4 mphOvercast
11:53 AM51.1 °F39.0 °F63 %30.29 in10.0 miENE (60°)12.7 mphOvercast
12:53 PM53.1 °F39.0 °F59 %30.30 in10.0 miNE (50°)11.5 mphOvercast
1:53 PM54.0 °F39.0 °F57 %30.30 in10.0 miNE (50°)10.4 mphOvercast
2:53 PM54.0 °F39.0 °F57 %30.30 in10.0 miENE (60°)9.2 mphOvercast
3:51 PM53.6 °F39.2 °F58 %30.30 in10.0 miNE (50°)10.4 mphOvercast
3:53 PM53.1 °F39.0 °F59 %30.31 in10.0 miNE (50°)11.5 mphOvercast
4:10 PM53.6 °F39.2 °F58 %30.30 in10.0 miNE (50°)9.2 mphOvercast
4:53 PM52.0 °F37.9 °F59 %30.32 in10.0 miNE (40°)10.4 mphOvercast
5:53 PM48.9 °F36.0 °F61 %30.32 in10.0 miNE (40°)11.5 mphOvercast
6:53 PM46.9 °F34.0 °F61 %30.34 in10.0 miNE (50°)11.5 mphOvercast
7:53 PM45.0 °F33.1 °F63 %30.35 in10.0 miNE (40°)10.4 mphScattered Clouds
8:53 PM41.0 °F30.9 °F67 %30.37 in10.0 miNNE (30°)6.9 mphClear
9:53 PM39.0 °F30.9 °F73 %30.38 in10.0 miNNE (20°)5.8 mphPartly Cloudy
10:53 PM42.1 °F30.9 °F65 %30.40 in10.0 miNNE (20°)8.1 mphMostly Cloudy
11:53 PM42.1 °F30.9 °F65 %30.40 in10.0 miNNE (30°)8.1 mphOvercast
Hourly data recorded from KYIP, located miles away from Belleville, Michigan







STORIES FROM OUR PARTNERS